Regional Weather Roundup
Issued by NWS Green Bay, WI

Home | Current Version | Previous Version | Graphics & Text | Print | Product List | Glossary Off
Versions: 1 2 3 4 5 6 7 8 9 10 11 12 13 14 15 16 17 18 19 20 21 22 23 24 25 26 27 28 29 30 31 32 33 34 35 36 37 38 39 40 41 42 43 44 45 46 47 48 49 50

000
ASUS43 KGRB 230959
RWRGRB

NORTH-CENTRAL AND NORTHEAST WISCONSIN REGIONAL WEATHER ROUNDUP
NATIONAL WEATHER SERVICE GREEN BAY WI
500 AM CDT SAT AUG 23 2014

WIZ005-009-010>012-018-019-231100-
NORTH CENTRAL WISCONSIN

CITY           SKY/WX    TMP DP  RH WIND       PRES   REMARKS
IRONWOOD       NOT AVBL
MANITOWISH WTR NOT AVBL
ARBOR VITAE    NOT AVBL
EAGLE RIVER    NOT AVBL
LAND O LAKES   NOT AVBL
RHINELANDER    FOG       68  67  96 N3        30.04F VSB 1/2
PHILLIPS       FOG       64  64 100 CALM      30.02F VSB 1
ANTIGO         NOT AVBL
TOMAHAWK       NOT AVBL
MERRILL        NOT AVBL
$$

WIZ013-073-231100-
NORTHEAST WISCONSIN

CITY           SKY/WX    TMP DP  RH WIND       PRES   REMARKS
IRON MOUNTAIN  CLOUDY    67  65  93 SE5       30.02F FOG
MARINETTE      CLOUDY    66  64  94 CALM      30.01S
$$

WIZ017-030-035>037-045-231100-
CENTRAL WISCONSIN

CITY           SKY/WX    TMP DP  RH WIND       PRES   REMARKS
MEDFORD        NOT AVBL
WAUSAU         CLOUDY    70  69  97 E5        29.99F FOG
MOSINEE        NOT AVBL
MARSHFIELD     FOG       72  71  97 E7        29.98F VSB 1/2
WISC RAPIDS    CLOUDY    72  70  93 E7        29.98F FOG
STEVENS POINT  NOT AVBL
WAUPACA        NOT AVBL
SHAWANO        CLOUDY    71  68  92 E3        30.00F FOG
CLINTONVILLE   NOT AVBL
$$

WIZ038-039-048-051-231100-
FOX VALLEY

CITY           SKY/WX    TMP DP  RH WIND       PRES   REMARKS
NWS GREEN BAY  LGT RAIN  69  67  93 NE5       30.00F
APPLETON       NOT AVBL
OSHKOSH        CLOUDY    72  71  97 CALM      29.98F FOG
FOND DU LAC    CLOUDY    71  69  93 SE5       29.98F FOG
$$

WIZ022-050-052-231100-
EAST CENTRAL WISCONSIN

CITY           SKY/WX    TMP DP  RH WIND       PRES   REMARKS
STURGEON BAY   CLOUDY    68  64  88 SE7       30.02F
MANITOWOC      NOT AVBL
SHEBOYGAN      FOG       68  67  96 NE5       30.01S VSB 1/4
$$

LMZ563-521-522-541>543-231100-
LAKESHORE

STATION/POSITION TIME  TEMP    WIND        PRES    VSBY  WAVE
                       AIR SEA DIR/SP/G                  HT/PER
                 (UTC) (F)     (DEG/KT/KT) (MB)    (MI)  (FT/S)
SHEBOYGAN LKSHOR 0900   67 65  360/  5/  5 1016.3R
KEWAUNEE LKSHORE 0900   68      CALM  /  1 1015.5R
NORTHPORT PIER   0900   67     160/  3/  4 1016.6R
N MID LAKE BUOY  0900   68 65  150/  6/  6 1015.9F         0
S GREEN BAY BUOY 0900   69     VRB  8      1017.2R
SISTER BAY LKSHO 0900   68        CALM       N/A
CHAMBERS ISLAND  0900   68      10/  3/  5 1016.6R
MENOMINEE LKSHOR 0900   68      10/  8/  9 1017.0R
$$


USA.gov is the U.S. government's official web portal to all federal, state and local government web resources and services.